MUOS-4

Last updated on Sat Aug 15 2026 00:03:00 GMT+0000 (Coordinated Universal Time)

1 40887U 15044A 26226.58270279 -.00000107 00000+0 00000+0 0 9996 2 40887 4.4382 42.5268 0054820 4.0822 201.1403 1.00271651 40145
UTC large
Height (km)
Speed (km/s)
/
Latitude / Longitude
Inclination (degrees)
Orbital Period (minutes)
Azimuth
Elevation
Range (km)
Doppler Factor

Next 0 passes for location: London (51.5072 / 0.1276)

No passes found over London.
MUOS-4